Location: Stilling
(56.0622°N, 9.9882°E)
Time: 00:20:56
(UTC+00:00)

Cosmos 2228 Rocket - Pass Details

Date: 13 July 2020
Orbit: 618 x 652 km, 82.5° (Epoch: 03 August)

Event Time Altitude Azimuth Distance (km) Brightness Sun altitude
Rises 22:31:14 0° 347° (NNW) 2,987 8.8 -11.4°
Reaches altitude 10° 22:33:31 10° 347° (NNW) 2,068 7.3 -11.5°
Maximum altitude 22:38:07 84° 260° (W) 659 3.2 -11.6°
Enters shadow 22:41:36 17° 173° (S) 1,623 4.5 -11.7°
